Tracking 19574 objects as of 15-Feb-2019
HD Live streaming from Space Station
objects crossing your sky now

COSMOS 532

Track COSMOS 532 now!
10-day predictions
COSMOS 532 is classified as:


NORAD ID: 6267
Int'l Code: 1972-087E
Perigee: 1,306.6 km
Apogee: 1,474.1 km
Inclination: 74.0 °
Period: 113.4 minutes
Semi major axis: 7761 km
RCS: 0.7139 m2 (medium)
Launch date: November 1, 1972
Source: Commonwealth of Independent States (former USSR) (CIS)
Launch site: PLESETSK MISSILE AND SPACE COMPLEX (PKMTR)
aabbcc
Your satellite tracking list
Your tracking list is empty




NASA's NSSDC Master Catalog

Two Line Element Set (TLE):
1  6267U 72087E   19045.83849213 -.00000012  00000-0  25177-4 0  9992
2  6267  74.0345 189.3462 0107902   7.8277 143.5785 12.69684645145597
Source of the keplerian elements: AFSPC